Погода в Железном

Украина / Донецкая область     48°22′18″N   37°53′18″E
темп.,
°C
ветер,
м/с
пор.,
м/с
влажн.,
%
обл.,
%
осадки,
мм/ч
давл.,
гПа
погр.,
м
19 апреля, пн
пн1900:00+9ю227322 0.0 101669
03:00+8юз117761 0.0 101622
06:00+7ююз0077100 0.0 101613
09:00+11вюв115998 0.0 1015462
12:00+15юв114382 0.0 10141722
15:00+16ссз013892 0.0 10131896
18:00+14ссв2147100 0.0 10131197
21:00+13юв2357100 0.0 1014193
20 апреля, вт
вт2000:00+12в236581 0.0 1012141
03:00+10в2469100 0.0 1011111
06:00+10в51083100 0.3 1007461
09:00+10в61288100 2.9 1007468
12:00+11вюв6993100 10.5 1003379
15:00+12ю61192100 11.9 1000738
18:00+11ю61182100 0.1 1000916
21:00+10ю71381100 0.2 10011062
21 апреля, ср
ср2100:00+10ююз71388100 0.5 1003894
03:00+9зюз61187100 0.8 1007807
06:00+9зюз5992100 0.4 1010659
09:00+9юз5986100 0.6 1013707
12:00+11зюз6870100 0.2 10141111
15:00+14зюз6842100 0.4 10152184
18:00+13зюз6852100 0.1 10161089
21:00+11юз3863100 0.1 1019385
22 апреля, чт
чт2200:00+10юз487195 0.2 1019474
03:00+9юз37777 0.4 1020218
06:00+8ююз238261 0.0 102194
09:00+12ююз466333 0.0 1022735
12:00+16юз564766 0.6 10211836
15:00+16ююз5543100 1.6 10212158
18:00+15ююз465297 0.0 1021634
21:00+12ю356557 0.1 1022159
23 апреля, пт
пт2300:00+9ююз247643 0.0 1023109
03:00+8ююз237913 0.0 102277
06:00+8ю23815 0.0 102264
09:00+13ю356018 0.0 1022596
12:00+16юз464618 0.1 10211836
15:00+15юз4647100 0.1 10191085
18:00+15ююз5748100 0.0 1018953
21:00+13ююз48582 0.0 1019455